User: anonymous   Login
Location: Caltech
(34.1382°N, 118.1253°W)
Time: 04:49:05
(UTC-07:00)
Language:

IRS-1A Rocket - Orbit

View from above orbital plane
View from above orbital plane
View from above satellite
View from above satellite

Ground track
Ground track

The orbit data is extracted from the following two-line orbital elements,

1 18961U 88021B   17085.87836115 +.00000341 +00000-0 +25627-3 0  9997
2 18961 099.3295 092.0768 0055017 092.0378 329.0008 14.00677494483899
Epoch (UTC): 26 March 2017 21:04:50
Eccentricity: 0.0055017
inclination: 99.3295°
perigee height: 851 km
apogee height: 931 km
right ascension of ascending node: 92.0768°
argument of perigee: 92.0378°
revolutions per day: 14.00677494
mean anomaly at epoch: 329.0008°
orbit number at epoch: 48389

The dashed part of the orbit path shows where the satellite is in the earth's shadow,  

DLR